Location: Joffre
(52.3362°N, 113.5373°W)
Time: 07:05:02
(UTC+00:00)

Envisat - Pass Details

Date: 30 November 2021
Orbit: 764 x 766 km, 98.2° (Epoch: 17 January)

Event Time Altitude Azimuth Distance (km) Brightness Sun altitude
Rises 11:20:22 0° 26° (NNE) 3,247 6.7 -35.6°
Reaches altitude 10° 11:23:27 10° 45° (NE) 2,314 6.0 -35.1°
Maximum altitude 11:26:52 18° 87° (E) 1,823 5.6 -34.6°
Drops below altitude 10° 11:30:16 10° 130° (SE) 2,302 5.9 -34.1°
Sets 11:33:19 0° 149° (SSE) 3,222 6.5 -33.7°
